Theta_e
305 306 311 311 311 311 311 312 313 313 312 312 313 312 311 311 311 310 310 309 314 315 316 318 319 320 320 320 323 321 321 319 319 321 326 324 322 324 325 323 321 322 323 322 321 323 323 326 329 334 330 332 339 341
305 310 311 311 312 312 312 312 312 313 313 312 312 313 312 311 311 311 310 309 310 312 315 316 316 316 318 319 320 320 320 319 320 319 321 321 322 319 324 328 322 325 321 323 323 324 321 325 328 328 328 337 340 340
305 310 311 311 312 312 312 311 311 312 312 312 312 313 312 312 312 312 312 310 310 312 313 313 314 316 316 317 317 319 319 319 319 317 317 321 323 319 321 321 322 320 319 321 322 327 328 330 329 329 330 333 338 339
305 310 311 311 312 312 312 311 310 310 311 313 311 311 312 312 312 312 312 311 310 313 313 314 312 314 315 315 315 315 317 318 318 318 318 321 322 319 322 320 321 321 322 326 326 328 327 328 329 329 331 332 334 335
304 311 311 311 311 311 311 311 311 310 311 312 312 311 312 312 312 312 312 312 311 312 314 314 313 314 313 315 316 316 316 317 318 318 317 319 318 318 318 319 322 319 323 323 324 326 324 324 325 325 331 331 333 334
304 310 310 310 310 310 310 310 310 310 311 313 313 312 312 312 312 312 312 312 311 310 312 314 313 314 315 314 314 315 316 317 318 317 318 318 317 320 323 323 321 320 319 319 322 321 323 323 323 322 331 330 323 317
304 306 310 309 309 310 311 310 309 310 312 313 313 313 312 312 312 312 312 311 311 311 310 312 313 312 313 314 314 315 315 317 317 317 317 318 319 320 321 322 318 316 319 320 318 322 324 321 323 324 327 322 320 318
303 305 311 309 309 311 311 308 308 310 312 313 314 313 313 313 312 312 311 312 310 312 311 312 313 315 315 316 317 315 316 316 317 318 317 317 314 317 322 320 319 317 317 317 318 321 322 322 322 321 321 319 315 313
304 306 311 311 311 311 309 309 308 311 312 313 313 313 313 313 313 312 312 311 312 311 312 312 316 317 315 316 316 316 316 318 317 318 318 318 316 319 318 318 320 318 318 319 319 321 324 325 324 320 321 320 315 314
304 309 312 312 312 309 308 307 310 311 312 313 313 313 312 312 313 313 312 311 311 311 312 313 314 316 313 315 314 315 315 316 318 318 315 316 318 316 317 315 316 316 317 318 320 324 326 324 321 321 321 318 315 314
307 310 312 311 312 308 308 309 311 311 312 313 313 313 313 313 312 313 314 313 314 314 314 314 314 316 313 316 317 315 316 317 317 317 317 317 318 316 315 312 314 316 318 319 321 321 323 321 322 322 321 317 315 314
309 312 312 313 310 309 309 310 311 311 312 312 314 314 314 312 312 315 317 316 317 316 314 317 317 317 316 315 317 317 319 318 320 316 317 319 318 317 317 313 316 318 319 318 320 320 318 320 322 321 317 314 313 313
312 313 313 313 309 309 310 311 311 311 312 314 314 314 313 313 314 317 317 318 318 316 316 314 316 316 317 316 317 318 318 319 317 319 319 319 318 317 315 315 315 316 318 318 319 319 318 321 320 316 314 313 313 313
314 314 313 309 309 309 310 311 311 311 315 314 315 311 315 317 317 317 317 317 315 314 313 314 317 317 316 317 318 319 318 318 319 320 321 318 314 315 316 315 314 315 317 316 317 319 317 316 315 314 314 314 314 314
309 307 307 309 311 310 310 311 311 312 315 315 315 316 315 314 313 313 314 314 313 313 313 315 316 316 317 317 317 318 319 319 317 318 316 313 314 313 313 314 313 313 315 315 315 315 315 314 314 314 314 315 315 315
308 309 309 312 312 311 311 311 314 315 315 315 314 315 313 313 313 313 313 312 311 311 312 311 314 316 316 314 319 318 318 317 316 313 312 313 313 312 312 313 313 313 314 314 314 315 315 315 315 315 314 314 314 315
308 309 309 310 310 311 311 314 314 315 316 314 315 313 312 312 313 313 311 311 311 311 313 312 314 315 313 316 317 314 316 313 311 311 313 312 312 312 312 313 314 314 314 314 314 314 314 314 314 314 315 315 316 317
309 309 310 310 311 311 313 315 315 315 314 313 314 313 312 311 311 311 311 311 310 310 310 312 310 312 311 314 314 312 310 309 309 311 313 312 312 312 312 313 313 312 312 313 313 313 313 314 314 314 315 316 316 316
309 309 310 311 311 311 314 314 314 315 314 313 312 312 312 312 312 312 311 311 311 309 308 308 310 311 311 309 309 309 309 309 310 309 312 312 312 312 313 312 312 312 312 312 313 313 313 313 314 314 315 315 315 315
310 310 311 311 313 313 313 315 314 315 315 313 312 312 312 313 312 312 312 311 311 310 311 311 310 309 309 307 308 309 309 309 308 309 310 313 313 312 312 311 310 310 310 310 310 311 312 311 312 312 312 312 313 314
312 312 313 313 315 315 315 315 315 314 314 313 312 312 313 311 311 312 312 311 310 311 312 309 308 308 308 308 308 308 309 309 309 309 311 312 312 311 312 310 309 309 308 309 309 309 310 311 311 311 311 311 311 310
312 313 313 313 315 315 316 316 315 315 314 314 313 312 313 313 314 312 311 312 311 311 310 308 309 308 308 308 309 309 309 309 310 310 311 311 310 310 309 309 309 309 309 309 309 309 308 309 309 309 309 310 310 310
313 313 313 314 314 315 315 314 315 313 315 313 312 315 314 313 312 311 312 310 310 309 310 309 308 308 308 308 308 308 308 309 309 310 310 310 308 307 308 309 309 309 310 309 309 309 310 310 310 310 309 309 309 309
312 312 313 314 314 312 315 316 315 315 315 316 314 315 314 313 310 312 313 311 309 309 309 309 308 308 307 308 308 308 308 308 308 309 309 309 309 308 309 309 309 308 309 309 309 309 309 309 309 309 309 309 308 308
312 312 312 310 313 315 318 318 317 316 316 315 316 317 315 311 314 313 313 311 309 309 309 308 308 308 309 309 308 308 308 308 309 309 308 309 308 308 309 308 308 308 308 308 308 309 309 309 308 309 309 309 309 308
311 312 313 316 317 317 317 315 315 316 316 315 315 315 315 315 315 315 313 311 308 307 307 307 308 308 308 308 308 308 307 308 308 308 308 308 308 309 309 309 309 308 308 308 308 308 307 307 308 308 308 308 308 309
309 313 314 314 315 314 314 313 314 316 316 317 316 317 316 316 317 315 313 311 305 306 307 308 308 309 310 309 309 309 308 308 308 309 309 309 308 308 308 309 309 308 307 307 307 307 306 306 306 306 306 307 307 307
313 314 317 317 317 316 316 317 317 318 316 314 315 318 317 317 317 314 312 310 305 305 307 308 308 309 309 309 310 310 310 310 309 309 308 308 307 307 308 308 307 307 307 307 307 305 304 304 304 305 305 306 307 306
314 316 316 317 318 317 317 318 319 318 315 315 318 317 316 314 313 310 311 307 306 306 307 308 309 309 309 309 309 309 309 309 309 308 309 308 307 306 307 307 306 306 306 307 306 305 304 304 304 305 305 305 305 304
315 315 318 319 320 319 319 317 317 312 314 315 313 312 311 311 311 310 309 307 306 307 308 309 309 309 308 309 309 308 308 307 307 309 307 307 306 304 305 305 304 305 306 306 305 305 305 305 304 304 304 304 304 304
318 318 319 320 320 319 317 313 312 311 312 313 313 312 312 310 310 310 307 308 307 308 309 309 309 309 309 309 309 309 308 308 307 306 306 305 305 305 305 305 305 305 305 305 304 304 304 304 304 304 304 304 304 304
317 318 317 319 318 316 316 314 311 311 312 313 313 311 311 310 311 309 308 309 309 309 309 309 309 309 309 309 309 308 307 308 308 307 306 305 305 305 305 305 305 305 305 305 304 304 304 303 303 304 304 304 304 305
317 316 316 317 317 317 316 314 313 314 313 314 313 312 312 312 312 311 310 308 308 309 309 309 309 309 309 309 309 308 307 307 308 308 307 306 305 306 306 306 305 305 305 305 304 304 304 304 304 304 304 305 305 305
Wind_Speed
16 16 14 15 13 15 15 19 25 27 32 29 24 20 16 15 17 19 20 23 23 11 13 9 9 11 9 6 3 1 2 2 2 4 5 5 5 10 10 9 5 7 7 5 3 8 12 7 7 6 2 6 21 26
14 8 9 8 10 12 16 21 26 29 30 33 28 18 12 12 16 20 20 16 24 20 6 8 18 25 24 15 5 3 2 1 1 2 1 0 4 3 8 12 5 10 5 4 6 7 4 2 2 5 6 4 16 25
12 6 4 5 8 11 16 22 26 28 30 30 30 21 9 7 13 20 20 9 19 16 19 23 27 25 24 22 15 7 4 5 4 2 3 2 4 2 5 5 5 3 3 6 6 5 9 9 5 1 4 7 11 19
12 7 6 6 8 11 15 21 25 28 29 28 26 23 12 6 10 17 22 14 18 4 5 9 18 15 15 20 27 25 22 10 5 2 4 3 3 2 2 3 3 0 7 6 3 4 5 7 9 6 1 9 16 21
13 10 9 10 11 14 16 19 24 27 28 28 22 23 14 6 6 12 17 18 16 12 3 4 9 15 20 16 15 17 23 25 15 4 3 3 3 2 2 3 5 4 4 5 8 10 4 4 4 5 13 16 21 23
15 13 13 12 13 15 18 20 22 24 26 25 19 17 16 9 4 6 6 11 15 19 6 2 5 13 14 11 17 17 18 17 14 7 5 5 5 4 3 4 8 16 13 11 9 11 11 12 17 22 22 23 24 26
15 14 14 13 13 18 21 21 19 20 21 15 12 13 12 9 4 1 1 1 2 17 3 3 4 5 11 12 11 11 14 12 11 6 5 4 6 6 3 9 6 6 18 22 12 11 10 23 22 24 24 24 24 23
16 14 13 14 15 19 21 20 15 16 18 13 10 12 11 7 5 5 7 7 5 6 3 2 4 4 7 5 6 11 9 15 10 7 4 4 1 3 4 10 22 22 13 11 20 17 19 26 25 29 25 25 22 20
14 13 12 12 14 18 20 14 11 13 17 12 13 14 7 5 4 6 4 5 7 2 3 4 2 1 3 4 7 8 10 4 6 4 5 7 3 5 7 18 23 27 13 8 18 14 17 33 36 32 27 22 20 19
14 10 9 8 12 17 14 9 9 13 16 13 10 3 2 5 6 3 2 2 4 4 4 3 5 2 3 1 2 3 2 1 1 1 10 2 3 16 18 19 25 14 15 15 22 17 23 36 36 33 27 21 17 16
8 9 5 7 12 13 9 7 10 13 14 11 5 2 7 8 1 3 3 3 3 2 2 4 4 3 3 3 2 5 1 2 2 3 3 3 3 6 6 4 15 20 10 16 19 17 30 36 33 28 23 21 18 17
9 4 4 9 11 10 7 9 12 14 15 14 7 9 4 2 1 2 2 1 1 1 4 7 4 5 3 7 4 4 2 3 2 9 3 3 2 6 11 3 10 14 21 10 17 16 20 22 24 25 24 22 19 17
5 4 8 10 10 7 7 8 11 16 18 5 2 2 2 0 3 3 4 2 2 3 6 8 4 4 2 2 2 1 1 0 2 3 2 2 8 11 12 4 9 10 25 17 22 30 28 26 24 22 22 20 18 17
5 7 8 9 8 6 7 8 12 14 7 2 2 4 2 1 3 2 4 3 5 8 15 10 4 3 2 2 1 3 2 1 3 3 2 3 13 18 14 6 5 13 16 15 20 25 23 23 22 20 18 18 17 17
7 8 8 7 7 9 9 9 11 10 2 2 1 2 3 3 3 6 7 7 4 10 9 6 3 2 2 2 2 2 1 3 3 2 2 14 16 12 7 4 6 13 17 17 19 22 21 19 18 17 15 14 14 15
9 8 4 5 10 9 7 8 8 3 2 1 1 1 1 3 5 6 7 8 8 11 6 2 2 1 2 2 2 4 2 3 2 3 12 13 8 4 0 4 7 12 17 20 20 20 19 16 14 13 13 13 12 13
9 5 9 10 6 5 5 4 2 2 2 1 2 2 2 2 3 4 6 9 9 4 2 2 2 2 3 1 2 3 2 2 5 8 9 6 4 7 12 17 20 23 23 22 20 18 14 13 13 13 14 13 12 13
11 10 8 6 5 5 2 1 2 2 2 3 2 3 4 3 4 4 5 9 7 3 2 2 1 2 2 2 2 1 2 5 6 8 5 6 10 15 17 18 18 17 17 16 15 15 14 14 13 13 13 14 14 15
12 7 4 4 6 6 2 1 1 2 3 3 5 6 6 6 6 5 4 5 6 4 2 1 2 1 1 2 2 4 5 5 6 8 2 8 12 12 10 11 13 13 13 14 14 13 14 14 13 12 12 13 13 15
2 1 2 4 5 3 2 2 2 3 3 2 4 4 4 5 6 6 6 5 3 0 1 1 1 3 2 2 5 7 7 7 7 6 4 9 9 10 12 13 11 11 13 14 14 13 11 10 12 12 11 10 12 15
1 3 4 4 3 3 3 2 3 3 3 3 4 3 3 6 6 4 3 3 1 1 0 1 3 3 2 1 2 4 3 3 4 5 4 9 14 12 10 8 8 9 11 10 11 11 8 10 11 11 9 9 9 10
2 4 4 3 2 3 4 3 3 5 3 3 3 3 4 3 2 2 2 2 1 1 2 4 5 4 4 4 7 8 6 3 0 2 4 9 16 16 14 11 9 9 10 10 10 10 11 13 13 12 12 11 10 9
4 4 2 2 2 3 2 3 2 2 2 2 2 2 2 2 2 3 2 1 1 2 4 8 7 7 7 6 6 6 6 8 9 7 12 19 21 16 14 10 9 10 9 9 8 9 11 11 12 12 13 11 11 11
5 2 2 2 2 3 3 2 2 2 2 2 2 3 1 1 2 2 2 1 3 5 8 9 9 9 8 6 6 8 10 12 15 17 15 15 18 14 11 7 6 7 9 11 8 5 8 12 13 12 13 12 10 9
1 2 3 4 3 2 2 1 1 2 2 2 2 2 1 3 2 2 1 4 8 8 11 11 10 8 7 7 8 9 13 13 11 12 15 11 8 5 1 2 5 6 4 4 4 6 10 9 10 12 11 10 11 10
3 4 4 3 2 3 2 2 2 2 2 2 3 2 2 2 2 3 2 10 14 16 15 14 13 11 9 8 8 8 9 9 8 7 6 4 1 2 2 1 2 2 5 5 7 7 8 6 6 10 11 10 11 12
3 3 4 5 3 2 3 3 2 2 3 3 2 1 2 3 3 1 3 11 20 18 14 13 11 9 9 9 7 6 4 4 3 2 2 1 4 2 3 2 1 1 2 6 7 5 3 3 5 6 7 11 12 12
5 3 3 3 4 5 3 2 3 3 3 3 2 3 2 2 1 1 3 12 16 19 16 13 10 8 5 4 3 3 3 3 3 2 2 6 6 3 4 5 5 4 6 8 6 4 3 3 5 5 7 6 10 11
4 4 4 4 5 5 5 4 3 4 3 5 2 1 1 2 2 1 7 19 20 21 18 14 11 8 5 4 3 3 3 5 5 3 4 3 2 3 4 3 3 3 5 7 7 5 4 6 4 4 6 7 8 7
3 7 3 3 3 3 4 8 3 4 5 5 3 1 1 1 1 5 12 21 23 20 15 13 10 7 7 5 4 3 3 2 2 2 1 1 1 3 5 5 4 3 6 8 5 3 2 4 5 6 6 6 6 5
2 4 3 5 4 4 5 6 8 6 5 5 5 4 4 3 4 7 13 17 18 17 16 13 10 10 10 9 8 5 6 5 6 5 5 3 5 7 8 6 6 5 6 10 6 3 2 7 7 6 5 5 5 5
6 7 3 3 4 5 6 4 4 4 4 5 5 6 6 5 5 9 17 20 20 19 15 11 8 6 4 3 3 3 5 5 6 9 8 7 6 7 7 5 3 5 5 5 2 3 3 6 8 5 2 4 6 6
4 5 5 4 3 3 4 4 3 2 2 2 2 5 6 5 5 6 13 23 24 21 16 12 9 5 5 5 6 4 4 5 6 5 7 9 9 8 8 6 4 3 2 2 2 2 1 1 5 5 4 3 4 7
Wind_Direction
329 333 344 351 27 19 16 10 4 -0 359 356 336 312 288 257 241 242 250 210 213 240 254 241 237 241 237 217 217 178 267 174 255 213 190 212 234 220 233 214 180 194 173 184 153 228 227 151 129 201 283 299 196 181
325 331 355 24 25 12 8 2 360 359 356 357 352 337 301 255 230 234 247 242 217 240 270 252 250 251 249 260 270 235 297 91 275 288 254 137 247 219 225 233 218 239 222 243 218 229 140 145 321 301 272 223 191 177
318 312 337 360 3 3 4 2 358 359 358 356 357 352 319 256 226 227 239 249 207 241 259 259 254 244 259 254 267 239 246 263 239 246 312 281 252 189 204 221 205 231 159 225 159 180 169 152 129 340 243 219 206 178
309 286 284 302 326 339 350 355 356 355 356 355 359 357 341 272 231 220 228 226 208 233 224 260 260 258 258 257 246 253 244 243 231 291 253 258 275 195 292 306 260 125 164 179 185 171 164 120 80 78 163 189 170 166
301 279 274 285 301 314 327 339 347 348 353 351 353 4 0 340 236 218 231 233 222 220 285 260 285 270 260 254 242 242 228 234 231 237 221 231 260 243 245 279 250 210 207 217 231 177 168 174 141 123 178 159 151 163
303 279 271 283 300 312 318 324 334 341 346 347 349 3 21 31 100 151 210 248 228 226 302 280 272 256 251 242 229 231 227 221 217 192 213 232 228 225 242 254 260 251 235 235 258 239 219 193 192 202 180 154 152 148
304 287 268 277 297 312 318 321 326 333 342 342 359 13 24 45 67 335 258 72 196 213 245 260 262 254 245 234 221 216 215 211 207 206 218 232 220 212 243 248 259 296 270 242 239 165 133 176 182 181 170 163 153 147
302 289 275 269 292 310 316 319 319 327 335 319 319 345 348 8 1 341 318 262 199 184 157 274 271 266 203 191 202 194 193 202 205 205 179 191 163 271 245 252 251 274 290 231 233 205 206 189 188 174 169 161 153 156
303 291 284 270 293 310 317 320 323 330 334 317 295 307 315 354 350 346 49 95 167 172 216 223 270 296 237 231 202 186 192 194 187 197 179 179 149 214 227 238 244 255 253 190 185 192 179 176 163 168 173 169 167 169
300 289 285 280 305 316 320 321 327 336 340 332 309 305 283 338 342 324 220 215 198 224 235 252 243 245 240 230 48 140 130 212 154 144 139 167 258 234 254 257 257 261 223 190 143 147 158 157 166 176 180 181 186 182
289 283 260 299 317 320 320 319 325 336 343 347 322 279 310 325 289 258 261 210 208 247 240 263 272 283 224 232 183 200 193 184 164 198 162 206 236 194 298 273 228 225 202 205 185 183 179 174 171 174 180 190 188 186
295 241 274 312 319 318 311 316 325 337 338 325 293 298 312 324 269 274 284 276 10 356 283 301 313 292 253 211 214 196 233 185 182 147 223 191 82 351 337 346 182 178 176 162 155 144 158 195 181 182 182 183 181 175
282 262 302 312 314 309 304 310 321 329 331 335 332 310 322 279 10 358 355 321 347 322 329 318 321 336 329 310 225 257 332 35 122 196 151 14 335 337 333 355 168 167 183 185 170 192 187 183 180 179 177 180 178 183
269 292 304 306 310 303 293 302 316 325 326 314 331 340 355 332 14 314 320 319 326 322 325 317 268 292 309 268 298 255 118 178 178 155 29 358 336 332 341 328 204 184 172 164 163 166 166 170 173 175 183 190 194 198
305 307 304 299 302 300 295 305 313 320 279 296 310 -0 15 328 286 313 323 321 317 328 327 312 276 316 334 300 354 291 196 62 48 57 12 324 325 323 319 312 194 179 177 171 164 162 162 163 170 175 180 186 191 194
324 322 311 301 309 307 309 309 308 279 252 253 247 257 309 313 340 349 345 328 325 324 321 305 302 314 43 325 354 24 13 49 53 337 321 331 319 319 249 131 142 152 157 153 149 149 151 155 170 178 180 186 193 199
337 333 317 317 324 325 311 302 268 255 269 230 226 241 267 281 275 292 333 338 342 332 3 334 348 25 294 316 68 16 36 11 332 332 355 18 78 98 114 121 126 131 134 137 139 136 144 145 156 167 174 174 170 165
324 315 313 309 335 332 289 268 255 254 241 234 246 228 243 257 275 291 317 358 8 11 354 44 1 29 36 7 45 36 333 336 352 0 29 107 121 117 115 114 115 119 121 125 130 134 142 150 162 168 169 170 164 159
309 301 272 315 340 335 285 257 241 262 252 246 255 259 255 257 258 271 295 331 0 30 98 72 69 45 22 345 334 320 311 311 327 347 99 142 139 133 127 124 127 129 134 135 140 146 150 152 160 162 169 166 164 164
282 185 325 329 328 305 285 257 242 256 259 244 253 261 251 249 262 260 271 284 325 66 58 62 112 165 179 282 311 306 298 277 273 299 308 185 166 145 135 133 137 135 136 136 141 150 154 155 159 161 160 156 169 162
79 349 343 327 311 258 262 265 248 251 276 259 275 270 264 263 261 250 243 238 193 102 158 184 164 169 174 47 332 321 309 274 226 244 256 192 184 167 161 140 134 133 131 134 143 157 156 155 165 165 171 177 160 156
329 330 329 317 283 279 268 241 259 289 268 272 275 258 266 264 265 247 208 198 176 146 176 166 156 134 121 73 86 69 59 85 206 231 191 159 134 127 127 131 134 134 134 134 138 145 158 171 174 173 173 176 180 185
350 339 303 278 269 255 262 274 266 262 267 289 290 261 231 239 235 197 259 225 144 178 166 157 143 129 131 115 90 85 83 84 90 112 153 143 135 138 122 114 131 129 131 139 137 144 141 145 145 147 162 166 155 155
330 274 265 259 249 269 294 249 257 282 278 267 265 272 241 266 173 243 264 160 169 155 157 160 152 142 133 112 95 88 105 105 108 115 119 122 132 136 125 90 91 130 146 149 140 137 171 172 162 167 168 172 172 134
306 221 236 270 240 252 250 260 244 256 257 249 264 259 172 180 235 243 242 167 166 161 156 155 154 152 146 142 132 122 125 125 123 127 139 143 145 140 61 66 140 172 188 233 231 175 178 177 186 195 198 197 191 189
250 225 190 230 220 223 220 238 223 247 258 255 241 255 194 231 247 253 219 177 174 173 168 167 160 153 149 144 144 148 158 156 151 152 165 171 207 266 294 286 158 149 180 166 161 156 152 153 178 196 200 204 204 201
257 251 230 232 245 251 258 249 244 240 252 239 244 227 215 237 235 224 207 182 178 174 161 158 151 140 142 143 145 155 167 180 194 190 192 348 341 274 226 191 121 179 190 179 160 153 155 187 203 203 199 195 194 198
249 254 231 189 224 227 264 245 218 225 235 217 226 230 255 263 351 263 186 172 173 168 165 164 162 157 161 162 165 180 211 227 226 240 253 327 342 328 215 193 186 199 204 196 191 173 152 145 140 169 201 210 207 203
239 227 213 241 225 222 226 229 235 224 223 191 242 244 264 268 289 212 169 168 166 168 176 182 182 183 204 227 235 255 258 221 218 253 273 303 345 43 106 143 141 145 175 183 167 159 145 143 125 140 155 166 170 182
252 202 230 243 230 239 245 203 222 249 222 224 236 197 127 54 290 187 175 176 182 185 190 192 194 197 207 220 227 204 168 126 104 169 85 20 84 97 100 94 92 111 163 170 167 169 196 183 178 177 175 188 192 180
234 201 239 238 260 258 267 253 238 252 244 234 227 210 175 143 136 170 185 184 185 186 188 193 205 223 230 234 227 223 219 212 186 174 162 106 127 137 135 127 73 64 123 135 109 30 205 184 170 170 181 188 198 203
206 211 222 249 264 264 286 241 238 236 237 218 213 200 181 171 180 190 190 188 186 190 195 207 226 219 197 204 220 191 194 223 222 205 191 187 160 156 159 151 131 84 128 177 169 88 123 175 173 182 205 195 225 250
227 237 239 264 265 265 233 214 242 255 241 222 225 216 204 201 228 216 201 200 202 201 202 198 192 209 237 258 258 241 213 226 246 238 217 206 192 175 167 164 169 185 160 148 223 256 318 193 202 214 214 236 258 252